Back to catalog

FREGAT R/B

LostMEO
NORAD 65591·ROCKET BODY·🇷🇺 Russia

Launched Sep 13, 2025 from Plesetsk Cosmodrome

Loading…

Next Passes (next 24 hours)

TLE

StaleSource: Space-Track

Epoch: Jun 22, 2026, 22:41 UTC

1 65591U 25206C   26173.94520198 -.00000078  00000-0  00000-0 0  9994
2 65591  64.6387 314.6277 0010646 176.1218 183.8795  2.14651457  6085

Track FREGAT R/B in real time with AllMySat

Download on the App Store